Pitt Meadows, British Columbia

10:42 PM PDT on April 24, 2017 (GMT -0700)
Pitt Meadows

Weather History for CWMM - October, 2011

Change the Weather History Date:

Thursday, October 6, 2011

  Actual Average Record
Temperature  
Mean Temperature 53 °F -  
Max Temperature 57 °F - - ()
Min Temperature 49 °F - - ()
Degree Days  
Heating Degree Days 12    
Growing Degree Days 3 (Base 50)    
Moisture  
Dew Point 50 °F    
Average Humidity 90    
Maximum Humidity 98    
Minimum Humidity 77    
Precipitation  
Precipitation 0.00 in - - ()
Sea Level Pressure  
Sea Level Pressure 29.94 in    
Wind  
Wind Speed 1 mph ()    
Max Wind Speed 4 mph    
Max Gust Speed -    
T = Trace of Precipitation, MM = Missing Value Source: Averaged Metar Reports

Daily Weather History Graph

Daily Weather History Graph

Search for Another Location

Airport or City:

Trip Planner

Search our weather history database for the weather conditions in past years. The results will help you decide how hot, cold, wet, or windy it might be!

Date:

Astronomy

Oct. 06, 2011 Rise Set
Actual Time 7:17 AM PDT 6:39 PM PDT
Civil Twilight 6:45 AM PDT 7:10 PM PDT
Nautical Twilight 6:09 AM PDT 7:47 PM PDT
Astronomical Twilight 5:31 AM PDT 8:24 PM PDT
Moon 4:17 PM PDT (10/6) 1:46 AM PDT (10/6)
Length of Visible Light 12h 24m
Length of Day
11h 21m
Waxing Gibbous, 76% of the Moon is Illuminated
Oct 6
Waxing Gibbous
Oct 11
Full
Oct 19
Last Quarter
Oct 26
New
Nov 2
First Quarter

Hourly Weather History & Observations

Time (PDT) Temp. Dew Point Humidity Pressure Visibility Wind Dir Wind Speed Gust Speed Precip Events Conditions
1:00 AM 50.9 °F 50.0 °F 97% 29.78 in - East 1.2 mph - N/A   Unknown
2:00 AM 50.5 °F 49.6 °F 97% 29.80 in - Calm Calm - N/A   Unknown
3:00 AM 50.0 °F 49.3 °F 97% 29.81 in - Calm Calm - N/A   Unknown
4:00 AM 49.8 °F 49.3 °F 98% 29.83 in - Calm Calm - N/A   Unknown
5:00 AM 50 °F 49 °F 96% 29.86 in - East 1.2 mph - -  
5:00 AM 49.8 °F 49.3 °F 98% 29.86 in - East 1.2 mph - N/A   Unknown
6:00 AM 50.2 °F 49.6 °F 98% 29.86 in - NE 1.2 mph - N/A   Unknown
7:00 AM 50.2 °F 49.5 °F 97% 29.88 in - NNW 1.2 mph - N/A   Unknown
8:00 AM 50.5 °F 49.8 °F 97% 29.91 in - NE 1.2 mph - N/A   Unknown
9:00 AM 51.3 °F 50.0 °F 95% 29.92 in - NE 1.2 mph - N/A   Unknown
10:00 AM 52.0 °F 50.2 °F 94% 29.94 in - NNE 3.5 mph - N/A   Unknown
11:00 AM 54 °F 50 °F 82% 29.96 in - East 1.2 mph - -  
12:00 PM 54.5 °F 48.2 °F 79% 29.97 in - NNW 2.3 mph - N/A   Unknown
1:00 PM 55.4 °F 49.5 °F 80% 29.97 in - West 2.3 mph - N/A   Unknown
2:00 PM 54.9 °F 50.4 °F 85% 29.98 in - SSE 2.3 mph - N/A   Unknown
3:00 PM 55.4 °F 50.2 °F 83% 29.99 in - East 1.2 mph - N/A   Unknown
4:00 PM 55.6 °F 50.9 °F 84% 30.00 in - ESE 1.2 mph - N/A   Unknown
5:00 PM 56 °F 51 °F 77% 30.00 in - East 2.3 mph - -  
5:00 PM 56.3 °F 50.9 °F 82% 30.00 in - East 2.3 mph - N/A   Unknown
6:00 PM 55.4 °F 50.7 °F 84% 30.01 in - ENE 1.2 mph - N/A   Unknown
7:00 PM 54.7 °F 50.9 °F 87% 30.03 in - SSE 2.3 mph - N/A   Unknown
8:00 PM 54.0 °F 50.7 °F 89% 30.04 in - West 2.3 mph - N/A   Unknown
9:00 PM 53.2 °F 51.4 °F 94% 30.04 in - East 2.3 mph - N/A   Unknown
10:00 PM 53.6 °F 51.6 °F 93% 30.04 in - North 1.2 mph - N/A   Unknown
11:00 PM 53 °F 51 °F 88% 30.03 in - ENE 2.3 mph - -  
11:00 PM 52.5 °F 50.5 °F 93% 30.03 in - ENE 2.3 mph - N/A   Unknown